When you browse on this site, cookies collect data to enhance your experience and personalize the content and advertising you see.
Visit our Privacy Policy to learn more. By continuing to use the site, you agree to this use of cookies and data.

Hourly Weather Donets'k

Today, 4 August, Tuesday

Time Temperature Precipitation Wind Pressure Humidity
00:00 +20°C° 0 mm 2 mps 746 mmHg 54%
01:00 +19°C° 0 mm 2 mps 746 mmHg 55%
02:00 +19°C° 0 mm 2 mps 746 mmHg 56%
03:00 +19°C° 0 mm 2 mps 746 mmHg 60%
04:00 +19°C° 0 mm 2 mps 746 mmHg 62%
05:00 +19°C° 0 mm 2 mps 746 mmHg 63%
06:00 +18°C° 0 mm 2 mps 746 mmHg 64%
07:00 +21°C° 0 mm 2 mps 747 mmHg 58%
08:00 +24°C° 0 mm 3 mps 747 mmHg 52%
09:00 +26°C° 0 mm 3 mps 747 mmHg 45%
10:00 +27°C° 0 mm 3 mps 747 mmHg 42%
11:00 +28°C° 0 mm 3 mps 747 mmHg 38%
12:00 +29°C° 0 mm 3 mps 747 mmHg 34%
13:00 +29°C° 0 mm 3 mps 747 mmHg 33%
14:00 +30°C° 0 mm 3 mps 746 mmHg 31%
15:00 +30°C° 0 mm 3 mps 746 mmHg 30%
16:00 +30°C° 0 mm 3 mps 746 mmHg 31%
17:00 +29°C° 0 mm 4 mps 746 mmHg 32%
18:00 +29°C° 0 mm 4 mps 746 mmHg 33%
19:00 +27°C° 0 mm 3 mps 746 mmHg 37%
20:00 +26°C° 0 mm 3 mps 746 mmHg 41%
21:00 +24°C° 0 mm 3 mps 746 mmHg 45%
22:00 +22°C° 0 mm 3 mps 746 mmHg 47%
23:00 +22°C° 0 mm 3 mps 746 mmHg 48%

Tomorrow, 5 August, Wednesday

Time Temperature Precipitation Wind Pressure Humidity
00:00 +21°C° 0 mm 3 mps 746 mmHg 50%
01:00 +20°C° 0 mm 3 mps 746 mmHg 52%
02:00 +20°C° 0 mm 3 mps 746 mmHg 55%
03:00 +19°C° 0 mm 3 mps 746 mmHg 57%
04:00 +19°C° 0 mm 3 mps 746 mmHg 59%
05:00 +19°C° 0 mm 3 mps 746 mmHg 60%
06:00 +18°C° 0 mm 3 mps 746 mmHg 62%
07:00 +20°C° 0 mm 3 mps 746 mmHg 57%
08:00 +22°C° 0 mm 4 mps 746 mmHg 52%
09:00 +23°C° 0 mm 5 mps 746 mmHg 48%
10:00 +26°C° 0 mm 5 mps 746 mmHg 44%
11:00 +27°C° 0 mm 5 mps 746 mmHg 39%
12:00 +28°C° 0 mm 5 mps 746 mmHg 35%
13:00 +29°C° 0 mm 5 mps 746 mmHg 34%
14:00 +30°C° 0 mm 5 mps 746 mmHg 33%
15:00 +30°C° 0 mm 5 mps 746 mmHg 32%
16:00 +30°C° 0 mm 6 mps 746 mmHg 34%
17:00 +29°C° 0 mm 6 mps 745 mmHg 36%
18:00 +29°C° 0 mm 6 mps 745 mmHg 37%
19:00 +28°C° 0 mm 5 mps 745 mmHg 42%
20:00 +26°C° 0 mm 4 mps 746 mmHg 47%
21:00 +23°C° 0 mm 4 mps 746 mmHg 52%
22:00 +24°C° 0 mm 3 mps 746 mmHg 54%
23:00 +22°C° 0 mm 3 mps 746 mmHg 57%

Day after tomorrow, 6 August, Thursday

Time Temperature Precipitation Wind Pressure Humidity
00:00 +22°C° 0 mm 3 mps 746 mmHg 59%
01:00 +21°C° 0 mm 3 mps 746 mmHg 62%
02:00 +21°C° 0 mm 3 mps 746 mmHg 65%
03:00 +20°C° 0 mm 4 mps 746 mmHg 67%
04:00 +20°C° 0 mm 3 mps 746 mmHg 70%
05:00 +20°C° 0 mm 3 mps 746 mmHg 72%
06:00 +20°C° 0 mm 3 mps 746 mmHg 74%
07:00 +21°C° 0 mm 4 mps 746 mmHg 69%
08:00 +23°C° 0 mm 4 mps 747 mmHg 64%
09:00 +26°C° 0 mm 5 mps 747 mmHg 58%
10:00 +28°C° 0 mm 5 mps 747 mmHg 53%
11:00 +30°C° 0 mm 4 mps 747 mmHg 48%
12:00 +32°C° 0 mm 4 mps 747 mmHg 42%
13:00 +33°C° 0 mm 4 mps 747 mmHg 39%
14:00 +34°C° 0 mm 4 mps 747 mmHg 36%
15:00 +35°C° 0 mm 4 mps 746 mmHg 34%
16:00 +34°C° 0 mm 4 mps 746 mmHg 35%
17:00 +34°C° 0 mm 4 mps 746 mmHg 37%
18:00 +34°C° 0 mm 4 mps 746 mmHg 38%
19:00 +32°C° 0 mm 4 mps 746 mmHg 44%
20:00 +29°C° 0 mm 4 mps 746 mmHg 49%
21:00 +28°C° 0 mm 4 mps 746 mmHg 55%
22:00 +27°C° 0 mm 4 mps 746 mmHg 58%
23:00 +26°C° 0 mm 4 mps 746 mmHg 61%

7 August, Friday

Time Temperature Precipitation Wind Pressure Humidity
00:00 +25°C° 0 mm 4 mps 747 mmHg 64%
01:00 +25°C° 0 mm 4 mps 747 mmHg 66%
02:00 +23°C° 0 mm 4 mps 746 mmHg 68%
03:00 +22°C° 0 mm 3 mps 746 mmHg 71%
04:00 +22°C° 0 mm 3 mps 746 mmHg 72%
05:00 +22°C° 0 mm 3 mps 746 mmHg 73%
06:00 +21°C° 0 mm 3 mps 747 mmHg 74%
07:00 +23°C° 0 mm 4 mps 747 mmHg 68%
08:00 +26°C° 0 mm 4 mps 747 mmHg 63%
09:00 +27°C° 0 mm 5 mps 747 mmHg 57%
10:00 +29°C° 0 mm 5 mps 747 mmHg 49%
11:00 +30°C° 0 mm 5 mps 747 mmHg 41%
12:00 +32°C° 0 mm 5 mps 747 mmHg 33%
13:00 +33°C° 0 mm 5 mps 746 mmHg 31%
14:00 +33°C° 0 mm 5 mps 746 mmHg 29%
15:00 +34°C° 0 mm 5 mps 746 mmHg 27%
16:00 +34°C° 0 mm 5 mps 745 mmHg 29%
17:00 +33°C° 0 mm 4 mps 745 mmHg 30%
18:00 +33°C° 0 mm 4 mps 745 mmHg 31%
19:00 +30°C° 0 mm 4 mps 745 mmHg 36%
20:00 +28°C° 0 mm 4 mps 745 mmHg 41%
21:00 +27°C° 0 mm 4 mps 745 mmHg 46%
22:00 +26°C° 0 mm 4 mps 745 mmHg 49%
23:00 +25°C° 0 mm 4 mps 745 mmHg 51%

8 August, Saturday

Time Temperature Precipitation Wind Pressure Humidity
00:00 +25°C° 0 mm 3 mps 745 mmHg 53%
01:00 +24°C° 0 mm 3 mps 744 mmHg 55%
02:00 +22°C° 0 mm 3 mps 744 mmHg 58%
03:00 +22°C° 0 mm 3 mps 744 mmHg 60%
04:00 +22°C° 0 mm 3 mps 744 mmHg 62%
05:00 +21°C° 0 mm 3 mps 744 mmHg 64%
06:00 +21°C° 0 mm 3 mps 744 mmHg 66%
07:00 +24°C° 0 mm 3 mps 744 mmHg 60%
08:00 +26°C° 0 mm 4 mps 744 mmHg 54%
09:00 +28°C° 0 mm 4 mps 744 mmHg 47%
10:00 +29°C° 0 mm 4 mps 743 mmHg 43%
11:00 +30°C° 0 mm 4 mps 743 mmHg 39%
12:00 +32°C° 0 mm 4 mps 743 mmHg 35%
13:00 +33°C° 0 mm 4 mps 743 mmHg 34%
14:00 +33°C° 0 mm 4 mps 742 mmHg 33%
15:00 +34°C° 0 mm 4 mps 742 mmHg 32%
16:00 +33°C° 0 mm 4 mps 742 mmHg 34%
17:00 +33°C° 0 mm 5 mps 742 mmHg 37%
18:00 +32°C° 0 mm 5 mps 741 mmHg 40%
19:00 +30°C° 0 mm 5 mps 741 mmHg 46%
20:00 +28°C° 0 mm 5 mps 741 mmHg 52%
21:00 +26°C° 0 mm 5 mps 741 mmHg 58%
22:00 +26°C° 0 mm 5 mps 741 mmHg 60%
23:00 +25°C° 0 mm 5 mps 741 mmHg 62%

9 August, Sunday

Time Temperature Precipitation Wind Pressure Humidity
00:00 +23°C° 0 mm 5 mps 741 mmHg 64%
01:00 +23°C° 0 mm 5 mps 741 mmHg 65%
02:00 +22°C° 0 mm 5 mps 741 mmHg 65%
03:00 +21°C° 0 mm 5 mps 740 mmHg 65%
04:00 +21°C° 0 mm 5 mps 740 mmHg 64%
05:00 +20°C° 0 mm 5 mps 740 mmHg 64%
06:00 +20°C° 0 mm 5 mps 740 mmHg 63%
07:00 +21°C° 0 mm 5 mps 740 mmHg 60%
08:00 +23°C° 0 mm 5 mps 740 mmHg 57%
09:00 +25°C° 0 mm 5 mps 741 mmHg 55%
10:00 +26°C° 0 mm 5 mps 741 mmHg 51%
11:00 +28°C° 0 mm 5 mps 741 mmHg 47%
12:00 +29°C° 0 mm 6 mps 741 mmHg 43%
13:00 +30°C° 0 mm 6 mps 740 mmHg 42%
14:00 +30°C° 0 mm 5 mps 740 mmHg 42%
15:00 +30°C° 0 mm 5 mps 740 mmHg 41%
16:00 +29°C° 0 mm 5 mps 740 mmHg 42%
17:00 +29°C° 0 mm 6 mps 740 mmHg 43%
18:00 +28°C° 0 mm 6 mps 740 mmHg 44%
19:00 +27°C° 0 mm 5 mps 740 mmHg 45%
20:00 +26°C° 0 mm 5 mps 740 mmHg 47%
21:00 +25°C° 0 mm 4 mps 740 mmHg 48%
22:00 +23°C° 0 mm 5 mps 740 mmHg 48%
23:00 +22°C° 0 mm 5 mps 740 mmHg 47%
Show more